Location: Great Snoring
(52.8667°N, 0.8833°E)
Time: 17:29:49
(UTC+00:00)

Daily predictions for brighter satellites

Satellite Brightness Start Highest point End
(mag) Time Altitude Azimuth Time Altitude Azimuth Time Altitude Azimuth
Cosmos 1076 Rocket 3.7 20:29:25 10° NNW 20:33:46 78° W 20:38:05 10° S
Cosmos 1900 4.5 20:32:43 10° NW 20:37:52 83° NE 20:43:01 10° SE
Cosmos 158 Rocket 4.4 20:34:11 10° S 20:39:13 46° ESE 20:44:21 10° NE
USA 186 4.3 20:37:31 10° SW 20:39:14 15° W 20:40:59 10° NW
USA 245 3.9 20:36:08 10° SSE 20:40:22 67° ENE 20:45:38 10° N
Cosmos 2058 Rocket 3.1 20:40:03 10° S 20:44:30 68° E 20:48:56 10° NNE
Geosat 4.2 20:41:15 10° NNE 20:46:17 80° NW 20:51:17 10° SW
Helios 1A 2.9 20:43:15 10° NNE 20:47:20 85° ESE 20:51:22 10° SSW
Cosmos 1980 Rocket 2.7 20:46:20 10° NNW 20:51:48 50° NE 20:57:13 10° SE
PSLV R/B 3.7 20:49:49 10° SSE 20:52:56 49° ENE 20:56:07 10° N
Helios 1B rocket 4.3 20:51:55 10° SSW 20:54:56 24° W 20:57:58 10° NW
ATLAS CENTAUR R/B 1.3 20:51:44 10° SSW 20:55:18 49° SE 20:59:02 10° NE
Terra 2.2 20:51:37 10° S 20:56:16 64° WSW 21:00:58 10° NNW
NOSS 7 (H) 4.0 20:53:45 10° NW 20:56:39 80° SW 20:59:36 11° SE
USA 234 3.5 20:51:02 10° ENE 20:57:21 49° SE 21:03:38 10° SSW
Cosmos 1315 Rocket 4.2 20:55:13 10° SE 20:58:12 21° E 21:01:12 10° NE
SAR-Lupe-2 3.9 20:58:28 10° S 21:02:01 66° WSW 21:05:36 10° NNW
SL-16 R/B 4.0 20:57:50 10° NNW 21:02:24 24° NE 21:06:57 10° E
Meteor 2-2 Rocket 4.4 21:00:08 10° S 21:06:00 67° E 21:11:58 10° NNE
BlueWalker 3 2.3 21:03:39 10° W 21:07:09 44° SSW 21:10:12 13° SE
Cosmos 1125 Rocket 3.8 21:03:23 10° NNW 21:08:41 70° WSW 21:13:56 10° SSE
Meteor 2-10 4.5 21:03:07 10° N 21:08:47 59° ENE 21:13:58 12° SSE
Cosmos 1346 Rocket 3.1 21:06:47 10° NNW 21:10:27 58° W 21:14:05 10° S
Cosmos 2322 Rocket 4.3 21:06:56 10° NNW 21:11:06 20° NNE 21:15:16 10° ENE
Cosmos 1400 Rocket 3.5 21:08:21 10° SSW 21:11:56 50° WNW 21:15:32 10° N
Cosmos 2366 rocket 4.1 21:08:31 10° N 21:14:55 75° ENE 21:21:08 11° SSE
SL-24 DEB 4.4 21:14:17 12° SSE 21:18:24 56° E 21:22:52 10° N
IRS-1C Rocket 4.4 21:15:52 10° S 21:21:06 69° WSW 21:26:24 10° NNW
Cosmos 44 3.7 21:16:46 10° NW 21:21:10 51° SW 21:25:13 13° SSE
Ariane Rocket 3.0 21:16:59 10° SSE 21:21:59 86° WSW 21:27:06 10° NNW
CZ-4C R/B 4.3 21:17:13 10° WNW 21:23:22 30° WSW 21:30:29 10° S
Cosmos 2298 Rocket 4.1 21:18:01 10° NNW 21:23:23 75° ENE 21:27:57 14° SSE
SL-8 Rocket 4.0 21:17:20 10° N 21:23:32 89° W 21:29:42 10° S
Cosmos 1697 Rocket 3.1 21:18:29 10° NW 21:24:02 59° WSW 21:29:17 12° SSE
Lacrosse 5 rocket 2.3 21:21:12 10° WNW 21:24:16 27° SW 21:26:34 14° S
Cosmos 1238 Rocket 3.2 21:22:12 14° SSE 21:24:51 35° E 21:27:53 10° NNE
Cosmos 1570 Rocket 4.0 21:22:10 10° S 21:27:20 64° ESE 21:32:36 10° NNE
ARIANE 5 R/B 4.4 21:24:13 10° ESE 21:27:24 20° ENE 21:30:37 10° N
CENTAUR R/B 4.1 21:23:01 10° NW 21:30:03 44° NNE 21:38:26 10° E
Cosmos 2360 Rocket 4.2 21:26:38 10° NNW 21:30:57 22° NNE 21:35:15 10° E
ATLAS 3B R/B 4.3 21:30:06 13° SE 21:33:30 17° ESE 21:38:04 10° ENE
Cosmos-2242 3.5 21:29:38 10° SSW 21:33:51 59° WNW 21:38:05 10° N
Cosmos 1536 3.1 21:31:12 10° N 21:34:55 48° ENE 21:37:32 18° SE
Cosmos 2344 4.2 21:28:11 10° WSW 21:35:25 58° NNW 21:42:58 10° NE
Meteor 2-6 Rocket 4.5 21:30:19 11° S 21:35:49 55° E 21:41:22 10° NNE
Cosmos 2369 3.9 21:31:08 10° NNW 21:36:48 65° NE 21:41:29 15° SE
Cosmos 1867 4.1 21:31:46 10° NW 21:37:02 50° WSW 21:41:23 15° SSE
Cosmos 405 Rocket 4.1 21:36:50 10° NNE 21:39:37 22° ENE 21:41:39 14° ESE
Cosmos 2150 Rocket 4.1 21:34:15 10° NNW 21:39:40 84° WSW 21:44:04 16° SSE
SeaSat 1 2.4 21:36:40 16° SE 21:40:39 89° ENE 21:45:37 10° NNW
Cosmos 2221 2.7 21:37:30 15° SSE 21:40:44 52° E 21:44:49 10° NNE
Okean O Rocket 4.1 21:38:27 10° SW 21:41:18 17° W 21:44:07 10° NW
Cosmos 2341 Rocket 4.3 21:38:56 10° NNW 21:45:08 64° W 21:51:16 10° S
Okean 1 3.3 21:42:38 17° S 21:45:15 55° E 21:48:52 10° NNE
Cosmos 2082 Rocket 2.9 21:42:05 15° SSE 21:46:02 34° ESE 21:51:02 10° NE
SPOT 3 Rocket 4.2 21:43:34 10° S 21:48:30 51° W 21:53:31 10° NNW
Cosmos 1674 2.8 21:48:35 21° E 21:48:40 21° E 21:50:28 10° NE
ISS -3.0 21:51:43 10° W 21:54:50 35° SSW 21:56:12 24° SSE
Cosmos 773 Rocket 4.0 21:51:35 10° S 21:56:40 64° ESE 22:01:45 10° NNE
COBE Rocket 4.5 21:52:37 10° NNE 21:57:31 45° E 22:00:56 19° SSE
Cosmos 1766 Rocket 3.7 21:55:00 10° N 21:59:23 64° ENE 22:02:12 21° SSE
Cosmos 2084 Rocket 3.3 21:55:50 10° SW 22:00:03 66° SE 22:04:16 10° NE
Cosmos 220 Rocket 4.0 21:57:20 17° S 22:00:19 54° ESE 22:04:19 10° NNE
COSMOS 2406 4.2 21:59:10 18° SSE 22:02:13 30° ESE 22:07:05 10° NE
ARIANE 6 FM1 Upper Stage 3.3 21:58:25 10° WSW 22:02:23 56° NW 22:06:24 10° NE
Cosmos 1356 Rocket 4.0 22:04:35 10° SSW 22:08:38 55° WNW 22:12:41 10° N
USA 59 Rocket 1.1 22:10:24 16° ESE 22:10:24 16° ESE 22:11:42 10° E
Cosmos 2333 Rocket 3.4 22:05:08 10° NNW 22:10:27 37° NE 22:15:42 10° ESE
NOSS 3-1 (C) 3.2 22:08:49 10° SW 22:13:45 85° NW 22:19:55 10° NE
Cosmos 1833 Rocket 3.5 22:08:30 10° SW 22:14:01 54° NW 22:19:35 10° NNE
MetOp-A 4.3 22:10:43 20° SE 22:14:12 57° ENE 22:19:17 10° N
Meteor 2-9 Rocket 4.2 22:14:29 10° NNW 22:20:08 88° W 22:24:06 21° S
Cosmos 1821 Rocket 4.2 22:14:16 10° NNW 22:20:18 64° W 22:25:07 16° S
NOSS 2-1 (E) 4.5 22:21:21 18° ESE 22:21:21 18° ESE 22:23:00 10° ENE
PKM 3.4 22:18:59 10° SW 22:21:43 62° SSE 22:25:56 10° ENE
Cosmos 1805 3.6 22:19:09 10° NNW 22:22:31 49° W 22:24:24 22° SSW
ALOS 2 3.8 22:19:44 17° ESE 22:22:31 33° ENE 22:26:28 10° N
Cosmos 2219 Rocket 3.9 22:21:20 10° NNW 22:26:08 27° NE 22:30:53 10° E
Meteor 1-19 Rocket 4.4 22:25:46 20° S 22:30:06 69° E 22:36:05 10° NNE
ATLAS CENTAUR R/B 3.1 22:28:10 10° W 22:31:37 32° NNW 22:35:08 10° NNE
Cosmos 1315 Rocket 3.9 22:30:06 10° SW 22:33:46 41° WNW 22:37:29 10° N
Meteor 1-27 Rocket 3.9 22:30:55 23° SSE 22:34:19 55° E 22:39:44 10° NNE
Cosmos 1980 Rocket 3.1 22:30:34 10° NW 22:35:40 37° WSW 22:39:12 18° SSW
NOSS 2-1 (D) 3.6 22:36:14 30° ESE 22:36:14 30° ESE 22:38:49 10° ENE
Sich 1 3.7 22:32:09 10° N 22:36:15 43° ENE 22:38:23 24° SE
Helios 1B 4.5 22:33:19 10° NNE 22:37:38 82° ESE 22:40:12 24° SSW
Genesis I 2.3 22:36:54 10° NW 22:39:40 73° NE 22:40:24 43° ESE
USA 234 3.4 22:34:08 10° ENE 22:40:42 82° NNW 22:47:15 10° WSW
DELTA 2 DEB (DPAF) 4.4 22:37:43 10° N 22:41:35 54° WNW 22:44:39 15° SW
NOSS 3-1 (A) 3.0 22:38:27 10° SW 22:43:21 79° SE 22:49:26 10° NE
Meteor 2-15 4.4 22:37:13 10° N 22:43:22 78° ENE 22:47:14 24° SSE
BlueWalker 3 4.1 22:42:43 10° WSW 22:44:08 12° SW 22:44:08 12° SW
SL-16 R/B 2.2 22:41:40 10° NNW 22:47:23 80° ENE 22:51:04 23° SE
Cosmos 1975 2.5 22:45:02 10° N 22:48:44 88° ENE 22:50:13 35° SSE
Meteor 1-11 Rocket 4.0 22:44:29 10° NNW 22:49:54 59° W 22:53:25 22° SSW
Cosmos 783 Rocket 4.5 22:47:02 17° SSW 22:51:07 88° WNW 22:56:24 10° NNE
Cosmos 1500 Rocket 4.0 22:47:06 10° N 22:51:23 52° ENE 22:53:33 26° SE
Cosmos 1707 3.4 22:51:13 28° ESE 22:51:56 30° E 22:54:56 10° NNE
CZ-4C R/B 3.2 22:48:28 10° N 22:52:09 69° WNW 22:54:01 26° SSW
Cosmos 1538 Rocket 4.5 22:50:41 26° SSE 22:53:03 42° ESE 22:57:54 10° NE
NOSS 2-1 (C) 3.0 22:55:39 42° SSE 22:55:58 44° SE 22:58:52 10° ENE
Cosmos 2322 Rocket 2.5 22:50:40 10° NNW 22:56:19 62° NE 23:00:24 19° SE
Cosmos 2237 4.3 22:51:12 10° NW 22:56:53 67° WSW 23:00:06 26° SSE
Spot 4 3.8 22:56:44 28° SSE 22:59:16 86° ENE 23:04:05 10° NNW
Meteor 2-15 Rocket 4.5 22:54:07 10° N 23:00:17 78° ENE 23:04:01 25° SSE
Cosmos 1408 Rocket 3.5 22:55:58 10° N 23:00:20 74° ENE 23:02:20 31° SSE
ARIANE 5 R/B 2.7 23:01:14 29° S 23:03:19 64° WSW 23:07:41 10° NNW
Cosmos 1766 3.1 23:00:44 10° NNW 23:04:10 64° W 23:05:17 38° SSW
Cosmos 1842 Rocket 3.5 23:02:48 27° SSW 23:05:05 79° W 23:09:26 10° N
Cosmos 1908 2.7 23:02:16 10° N 23:05:33 85° ENE 23:06:26 46° SSE
Cosmos 1470 2.7 23:02:34 10° N 23:06:06 63° ENE 23:07:19 37° SE
Cosmos 1805 Rocket 3.7 23:03:04 10° N 23:07:31 70° ENE 23:09:35 31° SSE
Nadezhda 3 Rocket 4.4 23:06:38 16° SSW 23:11:39 59° WNW 23:17:50 10° N
Cosmos 2278 3.7 23:07:54 10° NW 23:13:33 71° WSW 23:16:39 27° SSE
Cosmos 405 Rocket 3.7 23:10:45 10° NNW 23:13:50 31° W 23:14:58 25° SW
GP-B 4.0 23:10:29 10° NNE 23:14:36 38° E 23:16:31 25° SE
Exosat Rocket 3.4 23:10:26 10° NNW 23:15:36 88° WSW 23:18:24 27° SSE
Cosmos 2360 Rocket 2.3 23:10:18 10° NNW 23:15:57 71° NE 23:19:47 21° SE
Cosmos 1934 Rocket 4.3 23:09:57 10° NNW 23:16:06 62° W 23:20:02 23° SSW
SeaSat 1 4.3 23:16:18 13° SW 23:18:39 18° WSW 23:21:59 10° WNW
Cosmos 1674 4.3 23:18:19 10° W 23:19:08 11° WNW 23:19:57 10° NW
CZ-2C R/B 3.8 23:14:51 10° N 23:19:13 69° WNW 23:21:45 25° SSW
Meteor 2-8 Rocket 4.4 23:14:56 10° N 23:21:09 85° E 23:24:49 26° SSE
Cosmos 381 Rocket 4.5 23:17:17 21° SSW 23:21:43 85° ESE 23:28:08 10° NNE
CENTAUR R/B 3.3 23:13:48 10° NW 23:21:46 83° NE 23:31:03 10° SE
ATLAS 3B R/B 3.0 23:17:16 19° SSW 23:22:47 62° SE 23:30:31 10° NE
KORONAS-FOTON 3.5 23:22:30 42° SSW 23:23:35 88° WNW 23:27:06 10° N
USA 229 DEB 3.9 23:20:46 26° S 23:23:43 44° ESE 23:30:01 10° NE
ASTEX 1 4.1 23:19:02 10° NNE 23:23:43 41° E 23:26:06 25° SE
Spot 1 4.3 23:19:32 10° NNE 23:23:45 57° ESE 23:25:33 33° SSE
USA 229 3.9 23:20:54 26° S 23:23:49 43° ESE 23:30:07 10° NE
Cosmos 1743 Rocket 3.6 23:21:19 10° N 23:25:47 79° ENE 23:27:46 33° SSE
Cosmos 2082 Rocket 2.8 23:24:24 10° SW 23:29:54 54° NW 23:35:27 10° NNE
Cosmos 1605 Rocket 4.1 23:25:15 10° NNW 23:31:36 76° W 23:35:18 26° S
Landsat 5 3.7 23:29:47 10° N 23:33:55 64° WNW 23:36:07 27° SW
Cosmos 1842 2.9 23:36:29 43° SSW 23:37:31 78° W 23:41:00 10° N
Cosmos 1420 Rocket 4.0 23:35:08 10° NNW 23:40:29 90° ENE 23:43:26 27° SSE
USA-17 4.1 23:40:09 10° NW 23:43:15 89° SW 23:44:06 45° SE
COSMOS 2406 3.6 23:41:09 13° SW 23:46:09 62° NW 23:51:51 10° NNE
Cosmos 1455 3.2 23:43:53 10° NNE 23:46:15 23° ENE 23:47:02 20° E
Cosmos 2237 Rocket 4.5 23:41:56 10° NNW 23:46:23 23° NNE 23:50:51 10° E
Cosmos 1300 2.1 23:46:38 10° N 23:49:48 84° E 23:50:26 54° SSE
